Weather History for KGYL - December, 2013

Change the Weather History Date:

Tuesday, December 24, 2013

  Actual Average Record
Temperature  
Mean Temperature -2 °F -  
Max Temperature 11 °F - - ()
Min Temperature -16 °F - - ()
Degree Days  
Heating Degree Days 68    
Moisture  
Dew Point -13 °F    
Average Humidity 64    
Maximum Humidity 79    
Minimum Humidity 45    
Precipitation  
Precipitation 0.00 in - - ()
Sea Level Pressure  
Sea Level Pressure 30.30 in    
Wind  
Wind Speed 6 mph (SSE)    
Max Wind Speed 15 mph    
Max Gust Speed 22 mph    
Visibility 9 miles    
Events Snow    
T = Trace of Precipitation, MM = Missing Value Source: NWS Daily Summary

Daily Weather History Graph

Daily Weather History Graph

Search for Another Location

Airport or City:

Trip Planner

Search our weather history database for the weather conditions in past years. The results will help you decide how hot, cold, wet, or windy it might be!

Date:

Astronomy

Dec. 24, 2013 Rise Set
Actual Time 7:52 AM CST 4:40 PM CST
Civil Twilight 7:18 AM CST 5:13 PM CST
Nautical Twilight 6:41 AM CST 5:51 PM CST
Astronomical Twilight 6:05 AM CST 6:26 PM CST
Moon No Moon Rise 11:30 AM CST (12/24)
Length of Visible Light 9h 55m
Length of Day
8h 48m
Waning Gibbous, 58% of the Moon is Illuminated
Dec 24
Waning Gibbous
Dec 25
Last Quarter
Jan 1
New
Jan 7
First Quarter
Jan 15
Full

Hourly Weather History & Observations

Time (CST) Temp. Windchill Dew Point Humidity Pressure Visibility Wind Dir Wind Speed Gust Speed Precip Events Conditions
12:13 AM -14.3 °F -26.5 °F -22.2 °F 68% 30.47 in 10.0 mi WSW 4.6 mph - N/A   Clear
12:33 AM -14.8 °F -29.1 °F -22.5 °F 68% 30.47 in 10.0 mi WSW 5.8 mph - N/A   Clear
12:53 AM -14.8 °F -27.2 °F -22.2 °F 69% 30.46 in 10.0 mi WSW 4.6 mph - N/A   Clear
1:13 AM -14.8 °F -24.8 °F -22.4 °F 69% 30.46 in 10.0 mi WSW 3.5 mph - N/A   Clear
1:33 AM -15.3 °F - -23.3 °F 67% 30.45 in 10.0 mi Calm Calm - N/A   Clear
1:53 AM -15.3 °F -25.4 °F -22.5 °F 70% 30.45 in 10.0 mi WSW 3.5 mph - N/A   Clear
2:13 AM -16.6 °F - -24.7 °F 67% 30.44 in 10.0 mi Calm Calm - N/A   Clear
2:33 AM -16.1 °F - -23.3 °F 70% 30.44 in 10.0 mi Calm Calm - N/A   Clear
2:53 AM -16.1 °F - -23.8 °F 68% 30.44 in 10.0 mi Calm Calm - N/A   Clear
3:13 AM -15.9 °F -26.0 °F -22.9 °F 71% 30.44 in 10.0 mi South 3.5 mph - N/A   Clear
3:33 AM -15.7 °F - -22.7 °F 71% 30.43 in 10.0 mi Calm Calm - N/A   Clear
3:53 AM -16.6 °F -32.9 °F -24.5 °F 67% 30.39 in 10.0 mi East 6.9 mph - N/A   Clear
4:13 AM -16.6 °F - -24.0 °F 69% 30.39 in 10.0 mi Calm Calm - N/A   Clear
4:33 AM -15.7 °F - -23.1 °F 69% 30.39 in 10.0 mi Calm Calm - N/A   Clear
4:53 AM -16.4 °F -26.6 °F -23.8 °F 69% 30.39 in 10.0 mi South 3.5 mph - N/A   Clear
5:13 AM -15.3 °F -27.8 °F -22.9 °F 69% 30.39 in 10.0 mi SSE 4.6 mph - N/A   Clear
5:33 AM -15.9 °F -26.0 °F -23.4 °F 69% 30.40 in 10.0 mi South 3.5 mph - N/A   Clear
5:53 AM -15.7 °F - -23.4 °F 68% 30.39 in 10.0 mi Calm Calm - N/A   Clear
6:13 AM -15.2 °F -25.2 °F -22.7 °F 69% 30.38 in 10.0 mi SE 3.5 mph - N/A   Clear
6:33 AM -15.2 °F -29.5 °F -22.9 °F 68% 30.38 in 10.0 mi SE 5.8 mph - N/A   Clear
6:53 AM -15.5 °F -28.0 °F -23.1 °F 69% 30.36 in 10.0 mi SE 4.6 mph - N/A   Clear
7:13 AM -15.0 °F -31.0 °F -22.9 °F 68% 30.36 in 10.0 mi SE 6.9 mph - N/A   Clear
7:33 AM -13.5 °F -27.6 °F -21.3 °F 68% 30.34 in 10.0 mi ESE 5.8 mph - N/A   Clear
7:53 AM -13.0 °F -27.0 °F -20.9 °F 68% 30.33 in 10.0 mi ESE 5.8 mph - N/A   Clear
8:13 AM -12.1 °F -28.9 °F -20.2 °F 67% 30.31 in 10.0 mi ESE 8.1 mph - N/A   Clear
8:33 AM -11.4 °F -30.4 °F -19.8 °F 66% 30.30 in 10.0 mi ESE 10.4 mph - N/A   Clear
8:53 AM -8.5 °F -28.6 °F -18.2 °F 62% 30.28 in 10.0 mi ESE 12.7 mph - N/A   Clear
9:13 AM -7.2 °F -21.7 °F -17.5 °F 61% 30.32 in 10.0 mi SSW 6.9 mph - N/A   Clear
9:33 AM -5.3 °F -17.8 °F -16.6 °F 58% 30.31 in 10.0 mi South 5.8 mph - N/A   Clear
9:53 AM -3.3 °F -13.7 °F -15.7 °F 55% 30.32 in 10.0 mi South 4.6 mph - N/A   Clear
10:13 AM -2.2 °F -14.2 °F -15.5 °F 53% 30.32 in 10.0 mi SSE 5.8 mph - N/A   Clear
10:33 AM -0.6 °F -16.0 °F -15.7 °F 49% 30.31 in 10.0 mi SSE 9.2 mph - N/A   Clear
10:53 AM 1.0 °F -14.0 °F -14.8 °F 48% 30.31 in 10.0 mi SSE 9.2 mph - N/A   Scattered Clouds
11:13 AM 2.3 °F -15.0 °F -14.3 °F 46% 30.28 in 10.0 mi SE 12.7 mph - N/A   Overcast
11:33 AM 3.6 °F -12.6 °F -12.3 °F 48% 30.27 in 10.0 mi SE 11.5 mph - N/A   Overcast
11:53 AM 5.7 °F -9.9 °F -11.4 °F 45% 30.25 in 10.0 mi SE 11.5 mph - N/A   Overcast
12:13 PM 6.3 °F -6.5 °F -11.0 °F 45% 30.25 in 10.0 mi SE 8.1 mph - N/A   Overcast
12:34 PM 7.9 °F -7.2 °F -8.7 °F 47% 30.24 in 10.0 mi SE 11.5 mph - N/A   Overcast
12:53 PM 8.6 °F -7.0 °F -8.3 °F 46% 30.22 in 10.0 mi SE 12.7 mph 17.3 mph N/A   Overcast
1:13 PM 9.7 °F -5.7 °F -7.1 °F 47% 30.20 in 10.0 mi SE 12.7 mph - N/A   Overcast
1:33 PM 10.4 °F -6.0 °F -6.0 °F 48% 30.20 in 10.0 mi SE 15.0 mph 20.7 mph N/A   Overcast
1:53 PM 10.4 °F -4.8 °F -5.3 °F 49% 30.18 in 10.0 mi SE 12.7 mph 19.6 mph N/A Snow Light Snow
2:13 PM 10.6 °F -5.2 °F -4.2 °F 51% 30.17 in 10.0 mi SE 13.8 mph - N/A   Overcast
2:33 PM 10.4 °F -6.0 °F -3.3 °F 54% 30.16 in 10.0 mi SE 15.0 mph 21.9 mph N/A   Overcast
2:53 PM 11.1 °F -3.9 °F -1.7 °F 57% 30.17 in 7.0 mi SSE 12.7 mph 19.6 mph N/A   Overcast
3:13 PM 11.1 °F -5.1 °F -0.2 °F 60% 30.15 in 7.0 mi SE 15.0 mph 19.6 mph N/A   Overcast
3:33 PM 11.1 °F -3.2 °F 0.7 °F 63% 30.15 in 10.0 mi SE 11.5 mph 17.3 mph N/A   Overcast
3:53 PM 11.1 °F -3.9 °F 1.9 °F 67% 30.15 in 10.0 mi SE 12.7 mph - N/A   Overcast
4:13 PM 11.1 °F -3.2 °F 2.5 °F 68% 30.16 in 10.0 mi SE 11.5 mph - N/A   Overcast
4:33 PM 10.9 °F -1.8 °F 3.7 °F 73% 30.16 in 5.0 mi SSE 9.2 mph - N/A Snow Light Snow
4:53 PM 10.8 °F -3.6 °F 4.3 °F 75% 30.16 in 5.0 mi SSE 11.5 mph - N/A Snow Light Snow
5:13 PM 10.8 °F -2.0 °F 4.6 °F 76% 30.15 in 3.0 mi SE 9.2 mph - N/A Snow Light Snow
5:33 PM 10.8 °F -2.8 °F 4.6 °F 76% 30.15 in 5.0 mi SSE 10.4 mph - N/A Snow Light Snow
5:53 PM 10.8 °F -3.6 °F 5.0 °F 78% 30.15 in 2.5 mi SSE 11.5 mph - N/A Snow Light Snow
6:13 PM 10.9 °F -0.8 °F 5.4 °F 78% 30.15 in 2.0 mi SSE 8.1 mph - N/A Snow Light Snow
6:33 PM 10.8 °F -3.6 °F 5.5 °F 79% 30.15 in 1.2 mi SSE 11.5 mph - N/A Snow Light Snow
6:50 PM 10.8 °F -2.8 °F 5.4 °F 79% 30.15 in 1.2 mi SSE 10.4 mph 16.1 mph N/A Snow Light Snow